Wind from 300 at 1 knots gusting 5

Air temperature 8.3° C
Dewpoint 4.0° C

Last reported at 2014-Apr-17 02:41 UTC.
Time now 2014-Apr-17 04:01 UTC

Location: N 40°34' E 022°58'.
View on Google Maps.

See reports from other nearby stations

Tides Stations Pressure Air Temp Water Temp Dewpoint Dewpoint depression Visibility Wind Speed Wind Dir Waves Ship positions

  
sailing weather and tide predictions

CW8081 Thessaloniki GR weather

date/time (UTC)wind fromknots sea level pressurealtimeterstation pressurevisibilityair tempwater tempwave heightnotes
2014-Apr-17 02:41 300 1 gusting 5 8.3
2014-Apr-17 02:31 313 2 gusting 6 8.3
2014-Apr-17 02:11 345 7.8
2014-Apr-17 02:01 346 7.8
2014-Apr-17 01:41 005 7.8
2014-Apr-17 01:31 7.8
2014-Apr-17 01:11 005 0 gusting 5 7.8
2014-Apr-17 01:01 005 3 gusting 5 7.8
2014-Apr-17 00:41 7.8
2014-Apr-17 00:31 005 5 gusting 7 7.8
2014-Apr-17 00:11 331 3 gusting 6 8.3
2014-Apr-17 00:01 338 2 gusting 7 8.3
2014-Apr-16 23:41 314 2 gusting 7 8.3
2014-Apr-16 23:31 333 3 gusting 8 8.3
2014-Apr-16 23:11 321 8.3
2014-Apr-16 23:01 321 8.3
2014-Apr-16 22:41 321 8.9
2014-Apr-16 22:31 321 3 gusting 6 8.9
2014-Apr-16 22:11 325 0 gusting 2 8.9
2014-Apr-16 22:01 325 8.9
2014-Apr-16 21:41 311 0 gusting 6 8.9
2014-Apr-16 21:31 319 1 gusting 6 9.4
2014-Apr-16 21:11 317 2 gusting 6 9.4
2014-Apr-16 21:01 315 5 gusting 10 9.4
2014-Apr-16 20:41 313 2 gusting 10 9.4
2014-Apr-16 20:31 323 1 gusting 8 10.0
2014-Apr-16 20:11 330 2 gusting 8 10.0
2014-Apr-16 20:01 318 3 gusting 7 10.6
2014-Apr-16 19:41 296 0 gusting 5 10.6
2014-Apr-16 19:31 038 4 gusting 10 10.6
2014-Apr-16 19:11 10.0
2014-Apr-16 19:01 9.4
2014-Apr-16 18:41 307 6 gusting 10 9.4
2014-Apr-16 18:31 337 6 gusting 17 8.9
2014-Apr-16 18:11 309 5 gusting 12 10.0
2014-Apr-16 18:01 325 6 gusting 17 10.6
2014-Apr-16 17:41 290 2 gusting 10 11.1
2014-Apr-16 17:31 295 4 gusting 10 11.7
2014-Apr-16 17:11 307 2 gusting 7 12.2
2014-Apr-16 17:01 306 0 gusting 10 12.2
2014-Apr-16 16:41 317 2 gusting 10 12.8
2014-Apr-16 16:31 327 3 gusting 11 12.8
2014-Apr-16 16:11 336 3 gusting 10 12.8
2014-Apr-16 16:01 278 4 gusting 11 13.3
2014-Apr-16 15:41 299 5 gusting 8 13.3
2014-Apr-16 15:31 311 1 gusting 8 13.3
2014-Apr-16 15:11 319 0 gusting 10 12.2
2014-Apr-16 15:01 314 6 gusting 10 12.2
2014-Apr-16 14:41 330 5 gusting 10 12.2
2014-Apr-16 14:31 288 6 gusting 11 12.2
2014-Apr-16 14:11 327 12.2
2014-Apr-16 14:01 348 1 gusting 10 12.2
2014-Apr-16 13:41 036 4 gusting 8 11.1
2014-Apr-16 13:31 025 6 gusting 15 10.0
2014-Apr-16 13:11 355 9 gusting 12 8.3
2014-Apr-16 13:01 009 10 gusting 21 7.8
2014-Apr-16 12:41 319 11 gusting 20 7.8
2014-Apr-16 12:31 313 8 gusting 18 8.3
2014-Apr-16 12:11 311 10 gusting 17 9.4
2014-Apr-16 12:01 257 5 gusting 13 10.0
2014-Apr-16 11:41 205 4 gusting 7 10.6
2014-Apr-16 11:31 187 4 gusting 6 10.0
2014-Apr-16 11:11 179 2 gusting 4 10.0
2014-Apr-16 11:01 314 10.0
2014-Apr-16 10:41 340 8.9
2014-Apr-16 10:31 341 8.9
2014-Apr-16 10:11 322 6 gusting 15 8.3
2014-Apr-16 10:01 342 10 gusting 17 8.3
2014-Apr-16 09:41 311 8 gusting 17 9.4
2014-Apr-16 09:31 346 8 gusting 17 10.0
2014-Apr-16 09:11 286 7 gusting 17 11.7
2014-Apr-16 09:01 265 6 gusting 13 12.8
2014-Apr-16 08:41 286 3 gusting 10 14.4
2014-Apr-16 08:31 251 4 gusting 10 15.0
2014-Apr-16 08:11 217 6 gusting 10 15.6
2014-Apr-16 08:01 226 4 gusting 6 15.6
2014-Apr-16 07:41 221 0 gusting 6 15.0
2014-Apr-16 07:31 268 1 gusting 6 14.4
2014-Apr-16 07:11 194 14.4
2014-Apr-16 07:01 186 13.9
2014-Apr-16 06:41 121 13.3
2014-Apr-16 06:31 120 12.8
2014-Apr-16 06:11 119 12.2
2014-Apr-16 06:01 119 12.2
2014-Apr-16 05:41 118 11.7
2014-Apr-16 05:31 119 11.7
2014-Apr-16 05:11 119 11.1
2014-Apr-16 05:01 118 10.6
2014-Apr-16 04:41 118 10.6
2014-Apr-16 04:31 118 10.6
2014-Apr-16 04:11 118 10.6
2014-Apr-16 04:01 117 10.6
2014-Apr-16 03:41 117 10.6
2014-Apr-16 03:31 150 10.6
2014-Apr-16 03:11 152 11.1
2014-Apr-16 03:01 152 4 gusting 5 11.1
2014-Apr-16 02:41 125 11.1
2014-Apr-16 02:31 125 11.1
2014-Apr-16 02:11 126 11.7
2014-Apr-16 02:01 126 11.7
2014-Apr-16 01:41 126 12.2
2014-Apr-16 01:31 126 12.2
2014-Apr-16 01:11 126 12.2
2014-Apr-16 01:01 123 12.2
2014-Apr-16 00:41 138 12.8
2014-Apr-16 00:31 205 13.3
2014-Apr-16 00:11 275 13.3
2014-Apr-16 00:01 275 13.9
2014-Apr-15 23:41 275 13.9
2014-Apr-15 23:31 273 13.9
2014-Apr-15 23:11 273 14.4
2014-Apr-15 23:01 273 15.0
2014-Apr-15 22:41 273 15.0
2014-Apr-15 22:31 273 15.0
2014-Apr-15 22:11 272 15.6
2014-Apr-15 22:01 271 15.6
2014-Apr-15 21:41 271 16.1
2014-Apr-15 21:31 270 3 gusting 7 16.7
2014-Apr-15 21:11 123 16.7
2014-Apr-15 20:41 126 17.2
2014-Apr-15 20:31 125 17.2
2014-Apr-15 20:11 139 17.2
2014-Apr-15 20:01 148 1 gusting 10 17.2
2014-Apr-15 19:41 111 1 gusting 10 17.2
2014-Apr-15 19:31 109 2 gusting 10 17.8
2014-Apr-15 19:11 138 2 gusting 10 17.8
2014-Apr-15 19:01 145 3 gusting 15 17.8
2014-Apr-15 18:41 159 6 gusting 12 17.8
2014-Apr-15 18:31 119 5 gusting 15 17.8
2014-Apr-15 18:11 120 6 gusting 11 17.8
2014-Apr-15 18:01 121 3 gusting 13 18.3
2014-Apr-15 17:41 127 6 gusting 19 18.3
2014-Apr-15 17:31 142 6 gusting 13 18.9
2014-Apr-15 17:11 130 6 gusting 17 19.4
2014-Apr-15 17:01 154 6 gusting 19 19.4
2014-Apr-15 16:41 142 7 gusting 13 20.0
2014-Apr-15 16:31 117 6 gusting 15 20.6
2014-Apr-15 16:11 149 8 gusting 13 21.1
2014-Apr-15 16:01 136 6 gusting 19 21.7
2014-Apr-15 15:41 153 8 gusting 15 22.8
2014-Apr-15 15:31 157 6 gusting 12 22.8
2014-Apr-15 15:11 155 6 gusting 13 23.3
2014-Apr-15 15:01 167 6 gusting 12 23.3
2014-Apr-15 14:41 178 7 gusting 13 23.3
2014-Apr-15 14:31 094 7 gusting 12 23.3
2014-Apr-15 14:11 198 7 gusting 12 23.3
2014-Apr-15 14:01 200 6 gusting 13 23.3
2014-Apr-15 13:41 147 8 gusting 13 23.3
2014-Apr-15 13:31 198 3 gusting 13 23.3
2014-Apr-15 13:11 203 6 gusting 8 23.3
2014-Apr-15 13:01 219 4 gusting 6 23.3
2014-Apr-15 12:41 234 4 gusting 6 23.3
2014-Apr-15 12:31 238 2 gusting 6 23.3
2014-Apr-15 12:11 237 4 gusting 6 23.3
2014-Apr-15 12:01 276 1 gusting 6 22.8
2014-Apr-15 11:41 207 3 gusting 6 22.2
2014-Apr-15 11:31 242 3 gusting 6 21.1
2014-Apr-15 11:11 274 2 gusting 7 20.6
2014-Apr-15 11:01 244 4 gusting 6 20.6
2014-Apr-15 10:41 240 2 gusting 8 19.4
2014-Apr-15 10:31 260 4 gusting 8 19.4
2014-Apr-15 10:11 249 6 gusting 8 20.0
2014-Apr-15 10:01 211 5 gusting 7 20.6
2014-Apr-15 09:41 232 2 gusting 6 20.6
2014-Apr-15 09:31 200 2 gusting 7 20.6
2014-Apr-15 09:11 229 2 gusting 5 19.4
2014-Apr-15 09:01 229 18.9
2014-Apr-15 08:41 235 4 gusting 7 18.9
2014-Apr-15 08:31 218 5 gusting 7 18.9
2014-Apr-15 08:11 218 2 gusting 4 17.2
2014-Apr-15 08:01 218 4 gusting 6 17.2
2014-Apr-15 07:41 240 3 gusting 6 16.7
2014-Apr-15 07:31 236 5 gusting 8 16.7
2014-Apr-15 07:11 190 2 gusting 4 16.1
2014-Apr-15 07:01 190 4 gusting 6 15.6
2014-Apr-15 06:41 152 2 gusting 5 15.0
2014-Apr-15 06:31 145 0 gusting 4 14.4
2014-Apr-15 06:11 143 1 gusting 4 13.9
2014-Apr-15 06:01 143 0 gusting 2 13.3
2014-Apr-15 05:41 139 12.8
2014-Apr-15 05:31 138 12.2
2014-Apr-15 05:11 138 11.1
2014-Apr-15 05:01 138 10.6
2014-Apr-15 04:41 138 10.6
2014-Apr-15 04:31 138 10.6
2014-Apr-15 04:11 138 10.6
2014-Apr-15 04:01 138 10.6